TimeCST,TemperatureF,Dew PointF,Humidity,Sea Level PressureIn,VisibilityMPH,Wind Direction,Wind SpeedMPH,Gust SpeedMPH,PrecipitationIn,Events,Conditions,WindDirDegrees,DateUTC
12:12 AM,44.6,32.0,61,30.00,10.0,South,13.8,-,N/A,,Clear,170,2012-11-21 06:12:00
12:33 AM,44.6,32.0,61,29.99,10.0,South,12.7,-,N/A,,Clear,170,2012-11-21 06:33:00
12:53 AM,46.4,33.8,62,29.98,10.0,South,13.8,-,N/A,,Clear,180,2012-11-21 06:53:00
1:12 AM,46.4,33.8,62,29.98,10.0,South,13.8,-,N/A,,Clear,180,2012-11-21 07:12:00
1:33 AM,46.4,33.8,62,29.97,10.0,South,13.8,-,N/A,,Clear,180,2012-11-21 07:33:00
1:53 AM,46.4,33.8,62,29.97,10.0,South,12.7,-,N/A,,Clear,190,2012-11-21 07:53:00
2:13 AM,46.4,33.8,62,29.96,10.0,SSW,13.8,19.6,N/A,,Clear,200,2012-11-21 08:13:00
2:33 AM,48.2,33.8,58,29.96,10.0,SSW,16.1,20.7,N/A,,Clear,210,2012-11-21 08:33:00
2:53 AM,46.4,33.8,62,29.96,10.0,SSW,13.8,-,N/A,,Clear,200,2012-11-21 08:53:00
3:13 AM,46.4,35.6,66,29.95,10.0,SSW,10.4,-,N/A,,Clear,200,2012-11-21 09:13:00
3:33 AM,46.4,35.6,66,29.95,10.0,SSW,11.5,-,N/A,,Clear,210,2012-11-21 09:33:00
3:53 AM,46.4,35.6,66,29.95,10.0,SSW,12.7,-,N/A,,Clear,200,2012-11-21 09:53:00
4:13 AM,46.4,35.6,66,29.94,10.0,SSW,11.5,17.3,N/A,,Clear,200,2012-11-21 10:13:00
4:33 AM,46.4,35.6,66,29.94,10.0,SSW,10.4,-,N/A,,Clear,210,2012-11-21 10:33:00
4:52 AM,46.4,35.6,66,29.94,10.0,SSW,9.2,-,N/A,,Clear,200,2012-11-21 10:52:00
5:13 AM,46.4,35.6,66,29.94,10.0,SSW,10.4,-,N/A,,Clear,200,2012-11-21 11:13:00
5:33 AM,46.4,35.6,66,29.94,10.0,SSW,9.2,-,N/A,,Clear,200,2012-11-21 11:33:00
5:53 AM,46.4,35.6,66,29.95,10.0,SSW,8.1,-,N/A,,Clear,210,2012-11-21 11:53:00
6:13 AM,46.4,35.6,66,29.95,10.0,SSW,6.9,-,N/A,,Clear,210,2012-11-21 12:13:00
6:33 AM,46.4,35.6,66,29.95,10.0,SSW,5.8,-,N/A,,Clear,210,2012-11-21 12:33:00
6:52 AM,46.4,35.6,66,29.94,10.0,SSW,9.2,-,N/A,,Clear,200,2012-11-21 12:52:00
7:13 AM,44.6,35.6,71,29.95,10.0,South,5.8,-,N/A,,Clear,190,2012-11-21 13:13:00
7:33 AM,41.0,35.6,81,29.95,10.0,South,3.5,-,N/A,,Clear,190,2012-11-21 13:33:00
7:53 AM,41.0,35.6,81,29.96,10.0,SSW,4.6,-,N/A,,Clear,200,2012-11-21 13:53:00
8:13 AM,42.8,35.6,76,29.95,7.0,South,4.6,-,N/A,,Clear,170,2012-11-21 14:13:00
8:32 AM,42.8,37.4,81,29.95,10.0,South,3.5,-,N/A,,Clear,170,2012-11-21 14:32:00
8:49 AM,42.8,37.4,81,29.95,10.0,Calm,Calm,-,N/A,,Clear,0,2012-11-21 14:49:00
9:13 AM,44.6,37.4,76,29.95,10.0,Calm,Calm,-,N/A,,Clear,0,2012-11-21 15:13:00
9:32 AM,48.2,37.4,66,29.95,10.0,South,3.5,-,N/A,,Clear,180,2012-11-21 15:32:00
9:53 AM,50.0,37.4,62,29.94,10.0,SSW,6.9,-,N/A,,Clear,200,2012-11-21 15:53:00
10:13 AM,51.8,39.2,62,29.94,10.0,SW,9.2,-,N/A,,Clear,220,2012-11-21 16:13:00
10:33 AM,53.6,39.2,58,29.94,10.0,SSW,8.1,-,N/A,,Clear,210,2012-11-21 16:33:00
10:53 AM,55.4,39.2,54,29.93,10.0,SW,10.4,-,N/A,,Clear,220,2012-11-21 16:53:00
11:13 AM,55.4,39.2,54,29.92,10.0,SSW,6.9,-,N/A,,Clear,210,2012-11-21 17:13:00
11:33 AM,59.0,39.2,48,29.90,10.0,South,9.2,-,N/A,,Clear,190,2012-11-21 17:33:00
11:53 AM,59.0,39.2,48,29.89,10.0,SSW,8.1,-,N/A,,Clear,210,2012-11-21 17:53:00
12:10 PM,60.8,37.4,42,29.88,10.0,SSW,9.2,-,N/A,,Clear,210,2012-11-21 18:10:00
12:32 PM,62.6,37.4,39,29.88,10.0,North,-9999.0,-,N/A,,Clear,0,2012-11-21 18:32:00
12:53 PM,62.6,37.4,39,29.86,10.0,South,11.5,-,N/A,,Clear,180,2012-11-21 18:53:00
1:13 PM,-9999,-9999,N/A,29.85,10.0,South,13.8,-,N/A,,Clear,180,2012-11-21 19:13:00
1:32 PM,66.2,35.6,32,29.84,10.0,South,13.8,17.3,N/A,,Clear,180,2012-11-21 19:32:00
1:52 PM,66.2,35.6,32,29.82,10.0,South,12.7,-,N/A,,Clear,190,2012-11-21 19:52:00
2:18 PM,69.8,33.8,27,29.81,10.0,SSW,12.7,17.3,N/A,,Clear,210,2012-11-21 20:18:00
2:32 PM,71.6,32.0,23,29.80,10.0,SSW,16.1,20.7,N/A,,Clear,200,2012-11-21 20:32:00
2:53 PM,71.6,33.8,25,29.80,10.0,SSW,12.7,-,N/A,,Clear,200,2012-11-21 20:53:00
3:13 PM,69.8,32.0,25,29.79,10.0,South,13.8,-,N/A,,Clear,190,2012-11-21 21:13:00
3:32 PM,69.8,32.0,25,29.79,10.0,South,10.4,-,N/A,,Clear,190,2012-11-21 21:32:00
3:58 PM,68.0,33.8,28,29.79,10.0,SSW,12.7,18.4,N/A,,Clear,200,2012-11-21 21:58:00
4:13 PM,66.2,35.6,32,29.78,10.0,South,13.8,18.4,N/A,,Clear,190,2012-11-21 22:13:00
4:33 PM,66.2,37.4,35,29.78,10.0,South,11.5,17.3,N/A,,Clear,190,2012-11-21 22:33:00
4:53 PM,64.4,37.4,37,29.78,10.0,SSW,13.8,-,N/A,,Clear,200,2012-11-21 22:53:00
5:13 PM,62.6,39.2,42,29.78,10.0,South,9.2,-,N/A,,Clear,190,2012-11-21 23:13:00
5:33 PM,62.6,39.2,42,29.78,10.0,South,9.2,-,N/A,,Clear,180,2012-11-21 23:33:00
5:53 PM,60.8,39.2,45,29.77,10.0,SSE,9.2,-,N/A,,Clear,160,2012-11-21 23:53:00
6:12 PM,60.8,42.8,52,29.76,10.0,South,10.4,-,N/A,,Clear,170,2012-11-22 00:12:00
6:33 PM,59.0,42.8,55,29.75,10.0,South,12.7,-,N/A,,Clear,170,2012-11-22 00:33:00
6:53 PM,60.8,42.8,52,29.75,10.0,South,13.8,-,N/A,,Clear,190,2012-11-22 00:53:00
7:12 PM,60.8,42.8,52,29.74,10.0,South,15.0,-,N/A,,Clear,190,2012-11-22 01:12:00
7:33 PM,60.8,42.8,52,29.74,10.0,South,16.1,-,N/A,,Clear,190,2012-11-22 01:33:00
7:53 PM,60.8,42.8,52,29.74,10.0,South,16.1,23.0,N/A,,Clear,190,2012-11-22 01:53:00
8:12 PM,59.0,42.8,55,29.73,10.0,South,16.1,-,N/A,,Clear,180,2012-11-22 02:12:00
8:33 PM,57.2,42.8,59,29.72,10.0,South,15.0,-,N/A,,Clear,180,2012-11-22 02:33:00
8:53 PM,57.2,42.8,59,29.72,10.0,South,13.8,-,N/A,,Clear,180,2012-11-22 02:53:00
9:12 PM,57.2,42.8,59,29.72,10.0,South,12.7,-,N/A,,Clear,180,2012-11-22 03:12:00
9:33 PM,55.4,42.8,63,29.72,10.0,South,11.5,16.1,N/A,,Clear,190,2012-11-22 03:33:00
9:53 PM,57.2,42.8,59,29.70,10.0,South,15.0,-,N/A,,Clear,190,2012-11-22 03:53:00
10:13 PM,57.2,42.8,59,29.69,10.0,South,15.0,20.7,N/A,,Clear,190,2012-11-22 04:13:00
10:33 PM,57.2,42.8,59,29.69,10.0,South,17.3,21.9,N/A,,Clear,190,2012-11-22 04:33:00
10:53 PM,57.2,42.8,59,29.68,10.0,South,15.0,-,N/A,,Clear,190,2012-11-22 04:53:00
11:13 PM,55.4,42.8,63,29.67,10.0,South,15.0,-,N/A,,Clear,190,2012-11-22 05:13:00
11:33 PM,53.6,42.8,67,29.67,10.0,South,10.4,-,N/A,,Clear,180,2012-11-22 05:33:00
11:53 PM,53.6,42.8,67,29.67,10.0,South,12.7,-,N/A,,Clear,180,2012-11-22 05:53:00